| time (UTC) | temp F | wind direction | speed knots | gust knots | rain 1hr in | rain 24hr in | rain mn in | humidity % | barometer mb |
| 20260506003046 | 45 | 70 | 2.6 | 8.7 | 0.00 | 0.00 | 0.00 | 79 | 1016.1 |
| 20260506002539 | 45 | 76 | 4.3 | 8.7 | 0.00 | 0.00 | 0.00 | 79 | 1016.0 |
| 20260506002038 | 45 | 81 | 4.3 | 8.7 | 0.00 | 0.00 | 0.00 | 80 | 1016.2 |
| 20260506001543 | 45 | 76 | 4.3 | 8.7 | 0.00 | 0.00 | 0.00 | 80 | 1016.1 |
| 20260506001039 | 45 | 84 | 5.2 | 8.7 | 0.00 | 0.00 | 0.00 | 80 | 1016.1 |
| 20260506000539 | 45 | 78 | 3.5 | 9.6 | 0.00 | 0.00 | 0.00 | 81 | 1016.1 |
| 20260506000047 | 45 | 66 | 4.3 | 9.6 | 0.00 | 0.00 | 0.00 | 81 | 1016.1 |
| 20260505235539 | 45 | 89 | 2.6 | 7.0 | 0.00 | 0.00 | 0.00 | 82 | 1016.1 |
| 20260505235037 | 45 | 61 | 2.6 | 7.0 | 0.00 | 0.00 | 0.00 | 81 | 1016.2 |
| 20260505234556 | 45 | 78 | 3.5 | 8.7 | 0.00 | 0.00 | 0.00 | 81 | 1016.1 |
| 20260505234037 | 45 | 32 | 2.6 | 10.4 | 0.00 | 0.00 | 0.00 | 81 | 1016.2 |
| 20260505233538 | 45 | 82 | 4.3 | 10.4 | 0.00 | 0.00 | 0.00 | 81 | 1016.1 |
| 20260505233053 | 45 | 76 | 4.3 | 9.6 | 0.00 | 0.00 | 0.00 | 81 | 1016.1 |
| 20260505232538 | 46 | 67 | 4.3 | 11.3 | 0.00 | 0.00 | 0.00 | 81 | 1016.2 |
| 20260505232037 | 46 | 74 | 6.1 | 11.3 | 0.00 | 0.00 | 0.00 | 81 | 1016.2 |
| 20260505231554 | 46 | 86 | 5.2 | 10.4 | 0.00 | 0.00 | 0.00 | 81 | 1016.1 |
| 20260505231038 | 46 | 87 | 5.2 | 10.4 | 0.00 | 0.00 | 0.00 | 80 | 1016.3 |
| 20260505230538 | 46 | 78 | 4.3 | 10.4 | 0.00 | 0.00 | 0.00 | 80 | 1016.1 |
| 20260505230048 | 46 | 59 | 5.2 | 12.2 | 0.00 | 0.00 | 0.00 | 80 | 1016.2 |
| 20260505225538 | 46 | 73 | 5.2 | 12.2 | 0.00 | 0.00 | 0.00 | 80 | 1016.2 |
| 20260505225038 | 46 | 55 | 5.2 | 11.3 | 0.00 | 0.00 | 0.00 | 80 | 1016.2 |
| 20260505224547 | 46 | 76 | 4.3 | 11.3 | 0.00 | 0.00 | 0.00 | 79 | 1016.1 |
| 20260505224037 | 46 | 88 | 5.2 | 10.4 | 0.00 | 0.00 | 0.00 | 79 | 1016.1 |
| 20260505223537 | 46 | 19 | 4.3 | 13.9 | 0.00 | 0.00 | 0.00 | 80 | 1016.1 |
| 20260505223052 | 47 | 86 | 4.3 | 13.9 | 0.00 | 0.00 | 0.00 | 80 | 1016.0 |
| 20260505222534 | 47 | 44 | 5.2 | 10.4 | 0.00 | 0.00 | 0.00 | 79 | 1016.0 |
| 20260505222037 | 47 | 46 | 5.2 | 10.4 | 0.00 | 0.00 | 0.00 | 79 | 1015.9 |
| 20260505221549 | 47 | 78 | 6.1 | 10.4 | 0.00 | 0.00 | 0.00 | 77 | 1016.0 |
| 20260505221037 | 47 | 84 | 5.2 | 10.4 | 0.00 | 0.00 | 0.00 | 77 | 1015.9 |
| 20260505220539 | 47 | 94 | 5.2 | 11.3 | 0.00 | 0.00 | 0.00 | 77 | 1016.0 |
| 20260505220046 | 47 | 82 | 6.1 | 11.3 | 0.00 | 0.00 | 0.00 | 77 | 1016.0 |
| 20260505215538 | 47 | 80 | 5.2 | 10.4 | 0.00 | 0.00 | 0.00 | 76 | 1016.1 |
| 20260505215037 | 47 | 62 | 6.1 | 13.0 | 0.00 | 0.00 | 0.00 | 76 | 1016.0 |
| 20260505214554 | 48 | 98 | 7.0 | 15.6 | 0.00 | 0.00 | 0.00 | 76 | 1016.0 |
| 20260505214038 | 48 | 88 | 9.6 | 15.6 | 0.00 | 0.00 | 0.00 | 77 | 1016.0 |
| 20260505213537 | 48 | 97 | 4.3 | 12.2 | 0.00 | 0.00 | 0.00 | 79 | 1016.0 |
| 20260505213049 | 48 | 86 | 7.0 | 12.2 | 0.00 | 0.00 | 0.00 | 79 | 1015.9 |
| 20260505212537 | 48 | 94 | 7.0 | 12.2 | 0.00 | 0.00 | 0.00 | 79 | 1016.0 |
| 20260505212038 | 48 | 67 | 5.2 | 12.2 | 0.00 | 0.00 | 0.00 | 78 | 1016.0 |
| 20260505211605 | 48 | 79 | 6.1 | 13.0 | 0.00 | 0.00 | 0.00 | 79 | 1016.0 |
| 20260505211043 | 49 | 86 | 7.0 | 13.0 | 0.00 | 0.00 | 0.00 | 79 | 1015.9 |
| 20260505210537 | 49 | 72 | 7.8 | 13.0 | 0.00 | 0.00 | 0.00 | 79 | 1015.9 |
| 20260505210046 | 49 | 96 | 7.0 | 11.3 | 0.00 | 0.00 | 0.00 | 79 | 1015.9 |
| 20260505205538 | 49 | 69 | 5.2 | 11.3 | 0.00 | 0.00 | 0.00 | 79 | 1015.9 |
| 20260505205038 | 49 | 82 | 2.6 | 8.7 | 0.00 | 0.00 | 0.00 | 78 | 1015.9 |
| 20260505204553 | 49 | 77 | 3.5 | 10.4 | 0.00 | 0.00 | 0.00 | 78 | 1015.9 |
| 20260505204037 | 49 | 44 | 5.2 | 11.3 | 0.00 | 0.00 | 0.00 | 78 | 1015.9 |
| 20260505203539 | 49 | 98 | 6.1 | 11.3 | 0.00 | 0.00 | 0.00 | 78 | 1015.9 |
| 20260505203049 | 49 | 82 | 6.1 | 9.6 | 0.00 | 0.00 | 0.00 | 78 | 1015.9 |
| 20260505202541 | 49 | 56 | 6.1 | 10.4 | 0.00 | 0.00 | 0.00 | 78 | 1015.9 |
| 20260505202040 | 50 | 53 | 5.2 | 10.4 | 0.00 | 0.00 | 0.00 | 78 | 1015.8 |
| 20260505201557 | 50 | 89 | 4.3 | 10.4 | 0.00 | 0.00 | 0.00 | 77 | 1015.9 |
| 20260505201038 | 50 | 83 | 6.1 | 10.4 | 0.00 | 0.00 | 0.00 | 77 | 1015.7 |
| 20260505200537 | 50 | 93 | 2.6 | 7.8 | 0.00 | 0.00 | 0.00 | 77 | 1015.7 |
| 20260505200050 | 50 | 58 | 3.5 | 7.8 | 0.00 | 0.00 | 0.00 | 76 | 1015.6 |
| 20260505195537 | 51 | 71 | 1.7 | 10.4 | 0.00 | 0.00 | 0.00 | 75 | 1015.6 |
| 20260505195037 | 51 | 68 | 4.3 | 10.4 | 0.00 | 0.00 | 0.00 | 74 | 1015.5 |
| 20260505194609 | 51 | 51 | 3.5 | 8.7 | 0.00 | 0.00 | 0.00 | 72 | 1015.6 |
| 20260505194037 | 51 | 5 | 1.7 | 8.7 | 0.00 | 0.00 | 0.00 | 72 | 1015.4 |
| 20260505193538 | 51 | 350 | 2.6 | 8.7 | 0.00 | 0.00 | 0.00 | 72 | 1015.3 |
| 20260505193055 | 51 | 340 | 3.5 | 8.7 | 0.00 | 0.00 | 0.00 | 71 | 1015.3 |
| 20260505192538 | 51 | 16 | 2.6 | 8.7 | 0.00 | 0.00 | 0.00 | 71 | 1015.1 |
| 20260505192037 | 52 | 36 | 2.6 | 7.8 | 0.00 | 0.00 | 0.00 | 70 | 1015.1 |
| 20260505191553 | 52 | 360 | 0.9 | 7.0 | 0.00 | 0.00 | 0.00 | 69 | 1015.2 |
| 20260505191037 | 52 | 349 | 1.7 | 7.8 | 0.00 | 0.00 | 0.00 | 68 | 1015.2 |
| 20260505190537 | 52 | 360 | 3.5 | 7.8 | 0.00 | 0.00 | 0.00 | 67 | 1015.1 |
| 20260505190049 | 52 | 5 | 1.7 | 7.8 | 0.00 | 0.00 | 0.00 | 67 | 1015.1 |
| 20260505185537 | 52 | 333 | 1.7 | 8.7 | 0.00 | 0.00 | 0.00 | 67 | 1015.0 |
| 20260505185038 | 52 | 340 | 3.5 | 9.6 | 0.00 | 0.00 | 0.00 | 66 | 1015.0 |
| 20260505184554 | 52 | 28 | 3.5 | 10.4 | 0.00 | 0.00 | 0.00 | 67 | 1015.0 |
| 20260505184038 | 52 | 22 | 4.3 | 10.4 | 0.00 | 0.00 | 0.00 | 67 | 1015.0 |
| 20260505183537 | 52 | 20 | 4.3 | 8.7 | 0.00 | 0.00 | 0.00 | 67 | 1014.9 |
| 20260505183046 | 52 | 0 | 3.5 | 8.7 | 0.00 | 0.00 | 0.00 | 68 | 1014.9 |
| 20260505182537 | 52 | 341 | 0.9 | 8.7 | 0.00 | 0.00 | 0.00 | 67 | 1014.8 |
| 20260505182040 | 52 | 0 | 3.5 | 11.3 | 0.00 | 0.00 | 0.00 | 67 | 1014.8 |
| 20260505181555 | 52 | 352 | 2.6 | 11.3 | 0.00 | 0.00 | 0.00 | 66 | 1014.9 |
| 20260505181037 | 53 | 327 | 0.9 | 10.4 | 0.00 | 0.00 | 0.00 | 67 | 1014.9 |
| 20260505180540 | 53 | 14 | 2.6 | 10.4 | 0.00 | 0.00 | 0.00 | 67 | 1014.9 |
| 20260505180046 | 53 | 25 | 4.3 | 10.4 | 0.00 | 0.00 | 0.00 | 67 | 1014.9 |
| 20260505175538 | 53 | 5 | 3.5 | 12.2 | 0.00 | 0.00 | 0.00 | 66 | 1014.8 |
| 20260505175038 | 53 | 355 | 3.5 | 12.2 | 0.00 | 0.00 | 0.00 | 66 | 1014.7 |
| 20260505174555 | 54 | 13 | 3.5 | 9.6 | 0.00 | 0.00 | 0.00 | 67 | 1014.8 |
| 20260505174038 | 54 | 45 | 3.5 | 9.6 | 0.00 | 0.00 | 0.00 | 68 | 1014.9 |
| 20260505173537 | 54 | 343 | 2.6 | 11.3 | 0.00 | 0.00 | 0.00 | 68 | 1014.9 |
| 20260505173051 | 55 | 323 | 6.1 | 11.3 | 0.00 | 0.00 | 0.00 | 68 | 1014.9 |
| 20260505172537 | 55 | 301 | 3.5 | 12.2 | 0.00 | 0.00 | 0.00 | 66 | 1015.0 |
| 20260505172037 | 55 | 0 | 3.5 | 12.2 | 0.00 | 0.00 | 0.00 | 64 | 1015.0 |
| 20260505171548 | 55 | 296 | 5.2 | 11.3 | 0.00 | 0.00 | 0.00 | 65 | 1014.9 |
| 20260505171040 | 55 | 317 | 2.6 | 9.6 | 0.00 | 0.00 | 0.00 | 65 | 1015.0 |
| 20260505170536 | 55 | 329 | 3.5 | 9.6 | 0.00 | 0.00 | 0.00 | 64 | 1015.0 |
| 20260505170048 | 55 | 340 | 3.5 | 11.3 | 0.00 | 0.00 | 0.00 | 65 | 1014.9 |
| 20260505165536 | 55 | 355 | 1.7 | 11.3 | 0.00 | 0.00 | 0.00 | 64 | 1014.9 |
| 20260505165036 | 56 | 339 | 4.3 | 11.3 | 0.00 | 0.00 | 0.00 | 64 | 1014.9 |
| 20260505164613 | 56 | 350 | 2.6 | 9.6 | 0.00 | 0.00 | 0.00 | 64 | 1014.8 |
| 20260505164036 | 56 | 299 | 1.7 | 7.8 | 0.00 | 0.00 | 0.00 | 65 | 1014.7 |
| 20260505163538 | 56 | 318 | 2.6 | 10.4 | 0.00 | 0.00 | 0.00 | 65 | 1014.7 |
| 20260505163053 | 56 | 331 | 4.3 | 11.3 | 0.00 | 0.00 | 0.00 | 64 | 1014.8 |
| 20260505162536 | 56 | 360 | 3.5 | 11.3 | 0.00 | 0.00 | 0.00 | 65 | 1014.9 |
| 20260505162037 | 56 | 11 | 4.3 | 11.3 | 0.00 | 0.00 | 0.00 | 66 | 1014.8 |
| 20260505161550 | 56 | 315 | 4.3 | 10.4 | 0.00 | 0.00 | 0.00 | 66 | 1014.7 |
| 20260505161037 | 55 | 322 | 4.3 | 10.4 | 0.00 | 0.00 | 0.00 | 66 | 1014.7 |
| 20260505160537 | 55 | 336 | 3.5 | 12.2 | 0.00 | 0.00 | 0.00 | 66 | 1014.8 |
| 20260505153126 | 56 | 296 | 7.0 | 13.9 | 0.00 | 0.00 | 0.00 | 68 | 1015.1 |
| 20260505152536 | 56 | 333 | 5.2 | 12.2 | 0.00 | 0.00 | 0.00 | 67 | 1014.9 |
| 20260505152036 | 56 | 281 | 5.2 | 11.3 | 0.00 | 0.00 | 0.00 | 65 | 1015.0 |
| 20260505151549 | 56 | 311 | 4.3 | 11.3 | 0.00 | 0.00 | 0.00 | 65 | 1014.9 |
| 20260505151037 | 56 | 322 | 2.6 | 10.4 | 0.00 | 0.00 | 0.00 | 64 | 1014.9 |
| 20260505150537 | 57 | 304 | 3.5 | 13.0 | 0.00 | 0.00 | 0.00 | 66 | 1014.9 |
| 20260505140536 | 57 | 327 | 5.2 | 12.2 | 0.00 | 0.00 | 0.00 | 63 | 1015.1 |
| 20260505130110 | 58 | 265 | 5.2 | 13.0 | 0.00 | 0.00 | 0.00 | 61 | 1015.2 |
| 20260505125038 | 61 | 290 | 4.3 | 12.2 | 0.00 | 0.00 | 0.00 | 57 | 1015.2 |
| 20260505124600 | 62 | 355 | 6.1 | 12.2 | 0.00 | 0.00 | 0.00 | 58 | 1015.2 |
| 20260505124038 | 59 | 355 | 2.6 | 7.8 | 0.00 | 0.00 | 0.00 | 59 | 1015.1 |
| 20260505123535 | 59 | 321 | 3.5 | 9.6 | 0.00 | 0.00 | 0.00 | 61 | 1015.1 |
| 20260505123048 | 58 | 329 | 2.6 | 11.3 | 0.00 | 0.00 | 0.00 | 66 | 1015.2 |
| 20260505122539 | 57 | 321 | 6.1 | 11.3 | 0.00 | 0.00 | 0.00 | 62 | 1015.2 |
| 20260505122037 | 58 | 20 | 5.2 | 11.3 | 0.00 | 0.00 | 0.00 | 62 | 1015.2 |
| 20260505121551 | 58 | 360 | 2.6 | 11.3 | 0.00 | 0.00 | 0.00 | 61 | 1015.2 |
| 20260505121038 | 57 | 335 | 4.3 | 11.3 | 0.00 | 0.00 | 0.00 | 59 | 1015.3 |
| 20260505120537 | 57 | 322 | 3.5 | 11.3 | 0.00 | 0.00 | 0.00 | 61 | 1015.3 |
| 20260505120105 | 57 | 287 | 5.2 | 13.0 | 0.00 | 0.00 | 0.00 | 61 | 1015.2 |
| 20260505115537 | 57 | 319 | 2.6 | 13.0 | 0.00 | 0.00 | 0.00 | 61 | 1015.2 |
| 20260505115041 | 57 | 318 | 4.3 | 12.2 | 0.00 | 0.00 | 0.00 | 61 | 1015.2 |
| 20260505114549 | 57 | 321 | 4.3 | 12.2 | 0.00 | 0.00 | 0.00 | 60 | 1015.4 |
| 20260505114038 | 57 | 352 | 5.2 | 12.2 | 0.00 | 0.00 | 0.00 | 60 | 1015.3 |
| 20260505113540 | 58 | 297 | 5.2 | 12.2 | 0.00 | 0.00 | 0.00 | 58 | 1015.3 |
| 20260505113052 | 60 | 9 | 3.5 | 12.2 | 0.00 | 0.00 | 0.00 | 58 | 1015.3 |
| 20260505112540 | 61 | 323 | 3.5 | 7.8 | 0.00 | 0.00 | 0.00 | 57 | 1015.3 |
| 20260505112037 | 58 | 351 | 3.5 | 7.8 | 0.00 | 0.00 | 0.00 | 59 | 1015.4 |
| 20260505111547 | 57 | 5 | 0.9 | 8.7 | 0.00 | 0.00 | 0.00 | 57 | 1015.3 |
| 20260505111035 | 58 | 360 | 1.7 | 8.7 | 0.00 | 0.00 | 0.00 | 63 | 1015.4 |
| 20260505110537 | 55 | 51 | 3.5 | 10.4 | 0.00 | 0.00 | 0.00 | 64 | 1015.5 |
| 20260505102037 | 56 | 360 | 3.5 | 12.2 | 0.00 | 0.00 | 0.00 | 62 | 1015.6 |
| 20260505101547 | 56 | 318 | 5.2 | 11.3 | 0.00 | 0.00 | 0.00 | 64 | 1015.6 |
| 20260505101037 | 56 | 311 | 4.3 | 10.4 | 0.00 | 0.00 | 0.00 | 64 | 1015.7 |
| 20260505100537 | 56 | 344 | 5.2 | 10.4 | 0.00 | 0.00 | 0.00 | 64 | 1015.7 |
| 20260505100048 | 56 | 352 | 1.7 | 8.7 | 0.00 | 0.00 | 0.00 | 65 | 1015.7 |
| 20260505095537 | 57 | 329 | 3.5 | 8.7 | 0.00 | 0.00 | 0.00 | 61 | 1015.7 |
| 20260505095038 | 56 | 10 | 1.7 | 9.6 | 0.00 | 0.00 | 0.00 | 65 | 1015.7 |
| 20260505094546 | 55 | 40 | 3.5 | 13.0 | 0.00 | 0.00 | 0.00 | 68 | 1015.7 |
| 20260505094038 | 55 | 349 | 4.3 | 13.0 | 0.00 | 0.00 | 0.00 | 65 | 1015.7 |
| 20260505093538 | 55 | 5 | 5.2 | 9.6 | 0.00 | 0.00 | 0.00 | 67 | 1015.8 |
| 20260505093050 | 54 | 355 | 3.5 | 7.8 | 0.00 | 0.00 | 0.00 | 66 | 1015.8 |
| 20260505092539 | 55 | 5 | 1.7 | 8.7 | 0.00 | 0.00 | 0.00 | 69 | 1015.8 |
| 20260505092038 | 54 | 355 | 2.6 | 11.3 | 0.00 | 0.00 | 0.00 | 68 | 1015.8 |
| 20260505091550 | 54 | 345 | 3.5 | 11.3 | 0.00 | 0.00 | 0.00 | 67 | 1015.9 |
| 20260505091040 | 54 | 329 | 3.5 | 11.3 | 0.00 | 0.00 | 0.00 | 68 | 1015.8 |
| 20260505090537 | 55 | 355 | 4.3 | 9.6 | 0.00 | 0.00 | 0.00 | 66 | 1015.9 |
| 20260505090044 | 55 | 307 | 4.3 | 12.2 | 0.00 | 0.00 | 0.00 | 64 | 1015.9 |
| 20260505085538 | 57 | 342 | 4.3 | 12.2 | 0.00 | 0.00 | 0.00 | 63 | 1015.9 |
| 20260505085040 | 58 | 339 | 5.2 | 12.2 | 0.00 | 0.00 | 0.00 | 62 | 1015.9 |
| 20260505084548 | 60 | 296 | 7.0 | 12.2 | 0.00 | 0.00 | 0.00 | 63 | 1015.9 |
| 20260505084038 | 61 | 0 | 5.2 | 12.2 | 0.00 | 0.00 | 0.00 | 63 | 1015.9 |
| 20260505083540 | 61 | 338 | 2.6 | 13.0 | 0.00 | 0.00 | 0.00 | 68 | 1015.8 |
| 20260505083049 | 59 | 352 | 4.3 | 13.0 | 0.00 | 0.00 | 0.00 | 65 | 1015.9 |
| 20260505082538 | 58 | 360 | 5.2 | 12.2 | 0.00 | 0.00 | 0.00 | 63 | 1015.9 |
| 20260505082037 | 58 | 5 | 2.6 | 11.3 | 0.00 | 0.00 | 0.00 | 66 | 1015.9 |
| 20260505081552 | 58 | 350 | 4.3 | 11.3 | 0.00 | 0.00 | 0.00 | 67 | 1016.0 |
| 20260505081037 | 58 | 5 | 4.3 | 13.9 | 0.00 | 0.00 | 0.00 | 69 | 1016.0 |
| 20260505080538 | 58 | 311 | 6.1 | 13.9 | 0.00 | 0.00 | 0.00 | 69 | 1016.1 |
| 20260505080047 | 57 | 355 | 5.2 | 13.9 | 0.00 | 0.00 | 0.00 | 70 | 1015.9 |
| 20260505075540 | 57 | 360 | 6.1 | 12.2 | 0.00 | 0.00 | 0.00 | 71 | 1015.9 |
| 20260505075038 | 57 | 342 | 6.1 | 12.2 | 0.00 | 0.00 | 0.00 | 68 | 1016.1 |
| 20260505074543 | 57 | 286 | 5.2 | 12.2 | 0.00 | 0.00 | 0.00 | 69 | 1016.0 |
| 20260505074037 | 57 | 267 | 4.3 | 11.3 | 0.00 | 0.00 | 0.00 | 72 | 1016.0 |
| 20260505073538 | 56 | 302 | 3.5 | 11.3 | 0.00 | 0.00 | 0.00 | 71 | 1016.0 |
| 20260505073050 | 56 | 355 | 5.2 | 11.3 | 0.00 | 0.00 | 0.00 | 74 | 1016.0 |
| 20260505072538 | 55 | 17 | 5.2 | 11.3 | 0.00 | 0.00 | 0.00 | 75 | 1015.8 |
| 20260505072041 | 55 | 329 | 3.5 | 10.4 | 0.00 | 0.00 | 0.00 | 77 | 1016.0 |
| 20260505071552 | 54 | 342 | 5.2 | 10.4 | 0.00 | 0.00 | 0.00 | 78 | 1016.1 |
| 20260505071037 | 53 | 342 | 3.5 | 7.8 | 0.00 | 0.00 | 0.00 | 80 | 1016.1 |
| 20260505070540 | 52 | 345 | 1.7 | 6.1 | 0.00 | 0.00 | 0.00 | 81 | 1016.1 |
| 20260505070046 | 52 | 348 | 0.9 | 6.1 | 0.00 | 0.00 | 0.00 | 80 | 1016.0 |
| 20260505065538 | 52 | 5 | 1.7 | 7.8 | 0.00 | 0.00 | 0.00 | 79 | 1015.9 |
| 20260505065037 | 53 | 337 | 0.9 | 7.8 | 0.00 | 0.00 | 0.00 | 78 | 1016.0 |
| 20260505064549 | 53 | 315 | 2.6 | 7.8 | 0.00 | 0.00 | 0.00 | 79 | 1016.1 |
| 20260505064037 | 54 | 288 | 0.9 | 7.0 | 0.00 | 0.00 | 0.00 | 81 | 1016.1 |
| 20260505063538 | 54 | 315 | 2.6 | 7.0 | 0.00 | 0.00 | 0.00 | 82 | 1016.1 |
| 20260505063045 | 53 | 311 | 3.5 | 7.8 | 0.00 | 0.00 | 0.00 | 83 | 1016.0 |
| 20260505062538 | 53 | 327 | 3.5 | 7.8 | 0.00 | 0.00 | 0.00 | 83 | 1015.9 |
| 20260505062038 | 52 | 301 | 2.6 | 7.8 | 0.00 | 0.00 | 0.00 | 84 | 1015.9 |
| 20260505061552 | 52 | 292 | 2.6 | 7.8 | 0.00 | 0.00 | 0.00 | 85 | 1015.8 |
| 20260505061037 | 51 | 323 | 3.5 | 7.8 | 0.00 | 0.00 | 0.00 | 86 | 1015.7 |
| 20260505060541 | 51 | 282 | 2.6 | 7.0 | 0.00 | 0.00 | 0.00 | 88 | 1015.8 |
| 20260505060053 | 50 | 296 | 1.7 | 6.1 | 0.00 | 0.00 | 0.00 | 90 | 1015.8 |
| 20260505055539 | 49 | 309 | 2.6 | 7.0 | 0.00 | 0.00 | 0.00 | 91 | 1015.8 |
| 20260505055037 | 48 | 307 | 2.6 | 7.0 | 0.00 | 0.00 | 0.00 | 91 | 1015.8 |
| 20260505054556 | 48 | 344 | 2.6 | 7.0 | 0.00 | 0.00 | 0.00 | 92 | 1015.8 |
| 20260505054037 | 47 | 293 | 3.5 | 7.0 | 0.00 | 0.00 | 0.00 | 92 | 1016.0 |
| 20260505053534 | 47 | 311 | 2.6 | 6.1 | 0.00 | 0.00 | 0.00 | 93 | 1016.0 |
| 20260505053056 | 46 | 313 | 1.7 | 6.1 | 0.00 | 0.00 | 0.00 | 93 | 1016.1 |
| 20260505052538 | 46 | 313 | 1.7 | 7.0 | 0.00 | 0.00 | 0.00 | 93 | 1015.9 |
| 20260505052038 | 45 | 306 | 2.6 | 7.0 | 0.00 | 0.00 | 0.00 | 93 | 1015.9 |
| 20260505051546 | 44 | 311 | 2.6 | 6.1 | 0.00 | 0.00 | 0.00 | 93 | 1015.9 |
| 20260505051039 | 43 | 299 | 2.6 | 6.1 | 0.00 | 0.00 | 0.00 | 93 | 1016.0 |
| 20260505050537 | 43 | 287 | 2.6 | 6.1 | 0.00 | 0.00 | 0.00 | 92 | 1016.0 |
| 20260505041552 | 42 | 329 | 1.7 | 8.7 | 0.00 | 0.00 | 0.00 | 91 | 1015.9 |
| 20260505041038 | 42 | 290 | 3.5 | 8.7 | 0.00 | 0.00 | 0.00 | 91 | 1015.8 |
| 20260505040541 | 42 | 286 | 5.2 | 7.8 | 0.00 | 0.00 | 0.00 | 91 | 1015.8 |
| 20260505040054 | 42 | 293 | 4.3 | 7.8 | 0.00 | 0.00 | 0.00 | 91 | 1015.8 |
| 20260505035538 | 42 | 275 | 4.3 | 7.8 | 0.00 | 0.00 | 0.00 | 91 | 1015.7 |
| 20260505035037 | 42 | 289 | 3.5 | 7.0 | 0.00 | 0.00 | 0.00 | 91 | 1015.7 |
| 20260505034546 | 42 | 314 | 2.6 | 7.0 | 0.00 | 0.00 | 0.00 | 90 | 1015.8 |
| 20260505034037 | 42 | 295 | 1.7 | 6.1 | 0.00 | 0.00 | 0.00 | 90 | 1015.7 |
| 20260505033537 | 42 | 294 | 2.6 | 7.8 | 0.00 | 0.00 | 0.00 | 90 | 1015.7 |
| 20260505033048 | 42 | 266 | 3.5 | 7.8 | 0.00 | 0.00 | 0.00 | 90 | 1015.8 |
| 20260505032537 | 42 | 288 | 4.3 | 7.8 | 0.00 | 0.00 | 0.00 | 90 | 1015.7 |
| 20260505032038 | 42 | 286 | 3.5 | 7.8 | 0.00 | 0.00 | 0.00 | 90 | 1015.8 |
| 20260505031545 | 42 | 319 | 5.2 | 8.7 | 0.00 | 0.00 | 0.00 | 90 | 1015.7 |
| 20260505031038 | 42 | 300 | 5.2 | 8.7 | 0.00 | 0.00 | 0.00 | 90 | 1015.7 |
| 20260505030603 | 42 | 296 | 4.3 | 8.7 | 0.00 | 0.00 | 0.00 | 90 | 1015.8 |
| 20260505030048 | 42 | 329 | 4.3 | 8.7 | 0.00 | 0.00 | 0.00 | 90 | 1015.8 |
| 20260505025540 | 42 | 309 | 3.5 | 7.8 | 0.00 | 0.00 | 0.00 | 90 | 1015.7 |
| 20260505025037 | 42 | 293 | 4.3 | 9.6 | 0.00 | 0.00 | 0.00 | 89 | 1015.7 |
| 20260505024547 | 43 | 299 | 5.2 | 9.6 | 0.00 | 0.00 | 0.00 | 90 | 1015.8 |
| 20260505024037 | 43 | 302 | 5.2 | 9.6 | 0.00 | 0.00 | 0.00 | 89 | 1015.7 |
| 20260505023537 | 43 | 312 | 4.3 | 9.6 | 0.00 | 0.00 | 0.00 | 89 | 1015.8 |
| 20260505023056 | 43 | 341 | 4.3 | 9.6 | 0.00 | 0.00 | 0.00 | 89 | 1015.9 |
| 20260505022538 | 43 | 272 | 3.5 | 9.6 | 0.00 | 0.00 | 0.00 | 89 | 1015.8 |
| 20260505022110 | 43 | 321 | 3.5 | 8.7 | 0.00 | 0.00 | 0.00 | 89 | 1015.8 |
| 20260505021545 | 43 | 327 | 3.5 | 7.8 | 0.00 | 0.00 | 0.00 | 89 | 1015.9 |
| 20260505021037 | 44 | 300 | 3.5 | 8.7 | 0.00 | 0.00 | 0.00 | 89 | 1015.9 |
| 20260505020540 | 44 | 335 | 4.3 | 8.7 | 0.00 | 0.00 | 0.00 | 89 | 1016.0 |
| 20260505020046 | 44 | 287 | 6.1 | 8.7 | 0.00 | 0.00 | 0.00 | 89 | 1016.0 |
| 20260505015537 | 44 | 329 | 4.3 | 8.7 | 0.00 | 0.00 | 0.00 | 89 | 1015.9 |
| 20260505015035 | 44 | 310 | 3.5 | 8.7 | 0.00 | 0.00 | 0.00 | 88 | 1015.9 |
| 20260505014550 | 45 | 289 | 5.2 | 8.7 | 0.00 | 0.00 | 0.00 | 88 | 1016.0 |
| 20260505014036 | 45 | 316 | 4.3 | 8.7 | 0.00 | 0.00 | 0.00 | 88 | 1016.0 |
| 20260505013537 | 45 | 301 | 3.5 | 10.4 | 0.00 | 0.00 | 0.00 | 88 | 1016.1 |
| 20260505013047 | 46 | 320 | 3.5 | 10.4 | 0.00 | 0.00 | 0.00 | 88 | 1016.2 |
| 20260505012538 | 46 | 317 | 4.3 | 10.4 | 0.00 | 0.00 | 0.00 | 89 | 1016.2 |
| 20260505012041 | 46 | 326 | 4.3 | 9.6 | 0.00 | 0.00 | 0.00 | 89 | 1016.3 |
| 20260505011552 | 47 | 304 | 5.2 | 10.4 | 0.00 | 0.00 | 0.00 | 89 | 1016.3 |
| 20260505011041 | 47 | 317 | 5.2 | 10.4 | 0.00 | 0.00 | 0.00 | 89 | 1016.3 |
| 20260505010537 | 47 | 302 | 4.3 | 8.7 | 0.00 | 0.00 | 0.00 | 89 | 1016.3 |
| 20260505010051 | 47 | 311 | 2.6 | 7.0 | 0.00 | 0.00 | 0.00 | 89 | 1016.3 |
| 20260505005537 | 47 | 300 | 3.5 | 7.8 | 0.00 | 0.00 | 0.00 | 90 | 1016.4 |
| 20260505005038 | 48 | 303 | 4.3 | 7.8 | 0.00 | 0.00 | 0.00 | 90 | 1016.3 |
| 20260505004548 | 48 | 332 | 3.5 | 7.8 | 0.00 | 0.00 | 0.00 | 90 | 1016.4 |
| 20260505004037 | 48 | 299 | 4.3 | 8.7 | 0.00 | 0.00 | 0.00 | 90 | 1016.5 |
| 20260505003540 | 48 | 303 | 4.3 | 8.7 | 0.00 | 0.00 | 0.00 | 90 | 1016.5 |